| time (UTC) | temp F | wind direction | speed MPH | gust MPH | rain 1hr in | rain 24hr in | rain mn in | humidity % | barometer mb |
| 20260510105017 | 61 | 0 | 9.0 | 14.0 | 0.00 | 0.00 | 0.00 | 77 | 1010.5 |
| 20260510104518 | 62 | 0 | 8.0 | 14.0 | 0.00 | 0.00 | 0.00 | 76 | 1010.5 |
| 20260510104019 | 62 | 0 | 7.0 | 12.0 | 0.00 | 0.00 | 0.00 | 76 | 1010.5 |
| 20260510103516 | 62 | 0 | 8.0 | 14.0 | 0.00 | 0.00 | 0.00 | 75 | 1010.2 |
| 20260510103015 | 62 | 0 | 8.0 | 14.0 | 0.00 | 0.00 | 0.00 | 75 | 1010.2 |
| 20260510102513 | 62 | 0 | 9.0 | 15.0 | 0.00 | 0.00 | 0.00 | 75 | 1010.1 |
| 20260510102013 | 62 | 0 | 9.0 | 15.0 | 0.00 | 0.00 | 0.00 | 75 | 1010.3 |
| 20260510101512 | 62 | 0 | 8.0 | 13.0 | 0.00 | 0.00 | 0.00 | 75 | 1010.2 |
| 20260510101242 | 62 | 0 | 8.0 | 14.0 | 0.00 | 0.00 | 0.00 | 75 | 1010.0 |
| 20260510100510 | 62 | 0 | 8.0 | 14.0 | 0.00 | 0.00 | 0.00 | 74 | 1009.9 |
| 20260510100009 | 63 | 0 | 7.0 | 12.0 | 0.00 | 0.00 | 0.00 | 75 | 1009.7 |
| 20260510095509 | 63 | 0 | 7.0 | 12.0 | 0.00 | 0.00 | 0.00 | 74 | 1009.5 |
| 20260510095004 | 63 | 0 | 7.0 | 11.0 | 0.00 | 0.00 | 0.00 | 74 | 1009.4 |
| 20260510094502 | 63 | 0 | 7.0 | 11.0 | 0.00 | 0.00 | 0.00 | 74 | 1009.2 |
| 20260510094003 | 64 | 0 | 7.0 | 11.0 | 0.00 | 0.00 | 0.00 | 74 | 1008.8 |
| 20260510093459 | 64 | 0 | 6.0 | 11.0 | 0.00 | 0.00 | 0.00 | 73 | 1008.6 |
| 20260510092959 | 64 | 0 | 6.0 | 12.0 | 0.00 | 0.00 | 0.00 | 73 | 1008.6 |
| 20260510092727 | 65 | 0 | 6.0 | 12.0 | 0.00 | 0.00 | 0.00 | 73 | 1008.5 |
| 20260510091952 | 65 | 0 | 6.0 | 11.0 | 0.00 | 0.00 | 0.00 | 73 | 1008.5 |
| 20260510091445 | 65 | 0 | 7.0 | 12.0 | 0.00 | 0.00 | 0.00 | 73 | 1008.4 |
| 20260510090946 | 65 | 0 | 7.0 | 12.0 | 0.00 | 0.00 | 0.00 | 73 | 1008.3 |
| 20260510090445 | 65 | 0 | 6.0 | 12.0 | 0.00 | 0.00 | 0.00 | 73 | 1008.3 |
| 20260510085944 | 65 | 0 | 6.0 | 11.0 | 0.00 | 0.00 | 0.00 | 73 | 1008.3 |
| 20260510085444 | 65 | 0 | 6.0 | 11.0 | 0.00 | 0.00 | 0.00 | 72 | 1008.1 |
| 20260510085217 | 65 | 0 | 6.0 | 11.0 | 0.00 | 0.00 | 0.00 | 72 | 1008.0 |
| 20260510084437 | 66 | 0 | 7.0 | 12.0 | 0.00 | 0.00 | 0.00 | 72 | 1008.0 |
| 20260510083937 | 66 | 0 | 7.0 | 12.0 | 0.00 | 0.00 | 0.00 | 72 | 1008.0 |
| 20260510083432 | 66 | 0 | 6.0 | 12.0 | 0.00 | 0.00 | 0.00 | 72 | 1008.1 |
| 20260510083204 | 66 | 0 | 6.0 | 10.0 | 0.00 | 0.00 | 0.00 | 72 | 1008.2 |
| 20260510082427 | 66 | 0 | 6.0 | 11.0 | 0.00 | 0.00 | 0.00 | 71 | 1008.2 |
| 20260510081925 | 66 | 0 | 7.0 | 11.0 | 0.00 | 0.00 | 0.00 | 71 | 1008.0 |
| 20260510081425 | 66 | 0 | 7.0 | 11.0 | 0.00 | 0.00 | 0.00 | 71 | 1008.2 |
| 20260510080925 | 67 | 0 | 7.0 | 11.0 | 0.00 | 0.00 | 0.00 | 70 | 1008.4 |
| 20260510080655 | 67 | 0 | 6.0 | 11.0 | 0.00 | 0.00 | 0.00 | 70 | 1008.5 |
| 20260510075923 | 67 | 0 | 7.0 | 15.0 | 0.00 | 0.00 | 0.00 | 69 | 1008.5 |
| 20260510075422 | 67 | 0 | 9.0 | 15.0 | 0.00 | 0.00 | 0.00 | 69 | 1008.4 |
| 20260510074918 | 68 | 0 | 9.0 | 14.0 | 0.00 | 0.00 | 0.00 | 68 | 1008.3 |
| 20260510074417 | 68 | 0 | 8.0 | 12.0 | 0.00 | 0.00 | 0.00 | 67 | 1008.3 |
| 20260510073916 | 68 | 0 | 7.0 | 11.0 | 0.00 | 0.00 | 0.00 | 66 | 1008.3 |
| 20260510073412 | 69 | 0 | 7.0 | 12.0 | 0.00 | 0.00 | 0.00 | 66 | 1008.1 |
| 20260510072909 | 69 | 0 | 8.0 | 14.0 | 0.00 | 0.00 | 0.00 | 65 | 1007.9 |
| 20260510072410 | 69 | 0 | 9.0 | 14.0 | 0.00 | 0.00 | 0.00 | 63 | 1007.9 |
| 20260510071909 | 69 | 0 | 8.0 | 14.0 | 0.00 | 0.00 | 0.00 | 63 | 1007.8 |
| 20260510071410 | 70 | 0 | 8.0 | 17.0 | 0.00 | 0.00 | 0.00 | 63 | 1007.8 |
| 20260510070907 | 70 | 0 | 8.0 | 17.0 | 0.00 | 0.00 | 0.00 | 62 | 1007.8 |
| 20260510070406 | 70 | 0 | 8.0 | 15.0 | 0.00 | 0.00 | 0.00 | 61 | 1007.7 |
| 20260510065905 | 71 | 0 | 8.0 | 17.0 | 0.00 | 0.00 | 0.00 | 59 | 1007.7 |
| 20260510065406 | 71 | 0 | 8.0 | 17.0 | 0.00 | 0.00 | 0.00 | 57 | 1008.0 |
| 20260510064854 | 72 | 0 | 8.0 | 16.0 | 0.00 | 0.00 | 0.00 | 56 | 1008.2 |
| 20260510064350 | 72 | 0 | 8.0 | 15.0 | 0.00 | 0.00 | 0.00 | 54 | 1008.2 |
| 20260510063847 | 73 | 0 | 8.0 | 15.0 | 0.00 | 0.00 | 0.00 | 50 | 1008.1 |
| 20260510063344 | 74 | 0 | 8.0 | 14.0 | 0.00 | 0.00 | 0.00 | 46 | 1008.3 |
| 20260510063116 | 74 | 0 | 8.0 | 15.0 | 0.00 | 0.00 | 0.00 | 44 | 1008.3 |
| 20260510062614 | 75 | 0 | 9.0 | 15.0 | 0.00 | 0.00 | 0.00 | 41 | 1007.9 |
| 20260510061844 | 76 | 53 | 9.0 | 15.0 | 0.00 | 0.00 | 0.00 | 37 | 1008.0 |
| 20260510061341 | 76 | 0 | 8.0 | 13.0 | 0.00 | 0.00 | 0.00 | 25 | 1007.9 |
| 20260510060841 | 77 | 0 | 7.0 | 15.0 | 0.00 | 0.00 | 0.00 | 24 | 1007.7 |
| 20260510060341 | 77 | 60 | 7.0 | 15.0 | 0.00 | 0.00 | 0.00 | 21 | 1007.4 |
| 20260510055844 | 77 | 0 | 5.0 | 11.0 | 0.00 | 0.00 | 0.00 | 20 | 1007.4 |
| 20260510055839 | 78 | 57 | 3.0 | 7.0 | 0.00 | 0.00 | 0.00 | 20 | 1007.1 |
| 20260510054836 | 78 | 60 | 4.0 | 8.0 | 0.00 | 0.00 | 0.00 | 19 | 1007.0 |
| 20260510054335 | 78 | 61 | 4.0 | 9.0 | 0.00 | 0.00 | 0.00 | 19 | 1007.0 |
| 20260510053835 | 78 | 0 | 5.0 | 9.0 | 0.00 | 0.00 | 0.00 | 19 | 1006.9 |
| 20260510053333 | 79 | 51 | 4.0 | 8.0 | 0.00 | 0.00 | 0.00 | 19 | 1006.8 |
| 20260510052833 | 79 | 0 | 3.0 | 6.0 | 0.00 | 0.00 | 0.00 | 19 | 1006.8 |
| 20260510052334 | 79 | 0 | 3.0 | 5.0 | 0.00 | 0.00 | 0.00 | 19 | 1006.7 |
| 20260510051831 | 80 | 0 | 3.0 | 5.0 | 0.00 | 0.00 | 0.00 | 19 | 1006.8 |
| 20260510051330 | 80 | 0 | 2.0 | 4.0 | 0.00 | 0.00 | 0.00 | 19 | 1006.9 |
| 20260510050830 | 80 | 29 | 2.0 | 10.0 | 0.00 | 0.00 | 0.00 | 19 | 1007.0 |
| 20260510050329 | 81 | 37 | 2.0 | 10.0 | 0.00 | 0.00 | 0.00 | 19 | 1007.0 |
| 20260510045828 | 81 | 37 | 1.0 | 3.0 | 0.00 | 0.00 | 0.00 | 18 | 1007.0 |
| 20260510045559 | 81 | 22 | 2.0 | 4.0 | 0.00 | 0.00 | 0.00 | 18 | 1007.2 |
| 20260510044826 | 81 | 20 | 3.0 | 5.0 | 0.00 | 0.00 | 0.00 | 18 | 1007.3 |
| 20260510044550 | 82 | 18 | 4.0 | 7.0 | 0.00 | 0.00 | 0.00 | 18 | 1007.2 |
| 20260510043818 | 82 | 17 | 4.0 | 7.0 | 0.00 | 0.00 | 0.00 | 18 | 1007.2 |
| 20260510043318 | 82 | 12 | 4.0 | 8.0 | 0.00 | 0.00 | 0.00 | 18 | 1007.2 |
| 20260510042815 | 82 | 0 | 4.0 | 8.0 | 0.00 | 0.00 | 0.00 | 18 | 1007.3 |
| 20260510042313 | 82 | 17 | 3.0 | 6.0 | 0.00 | 0.00 | 0.00 | 18 | 1007.3 |
| 20260510041812 | 82 | 0 | 4.0 | 7.0 | 0.00 | 0.00 | 0.00 | 17 | 1007.3 |
| 20260510041313 | 82 | 18 | 5.0 | 9.0 | 0.00 | 0.00 | 0.00 | 18 | 1007.3 |
| 20260510040814 | 82 | 357 | 5.0 | 9.0 | 0.00 | 0.00 | 0.00 | 18 | 1007.4 |
| 20260510040314 | 82 | 357 | 5.0 | 10.0 | 0.00 | 0.00 | 0.00 | 18 | 1007.4 |
| 20260510035810 | 82 | 349 | 6.0 | 11.0 | 0.00 | 0.00 | 0.00 | 18 | 1007.3 |
| 20260510035306 | 82 | 0 | 8.0 | 16.0 | 0.00 | 0.00 | 0.00 | 18 | 1007.0 |
| 20260510034807 | 82 | 353 | 7.0 | 16.0 | 0.00 | 0.00 | 0.00 | 18 | 1006.8 |
| 20260510034307 | 81 | 43 | 6.0 | 13.0 | 0.00 | 0.00 | 0.00 | 18 | 1006.8 |
| 20260510033808 | 81 | 354 | 6.0 | 11.0 | 0.00 | 0.00 | 0.00 | 18 | 1007.0 |
| 20260510033305 | 81 | 0 | 4.0 | 11.0 | 0.00 | 0.00 | 0.00 | 18 | 1007.1 |
| 20260510032802 | 81 | 0 | 3.0 | 6.0 | 0.00 | 0.00 | 0.00 | 17 | 1007.0 |
| 20260510032301 | 81 | 0 | 2.0 | 6.0 | 0.00 | 0.00 | 0.00 | 16 | 1006.5 |
| 20260510031802 | 81 | 33 | 2.0 | 6.0 | 0.00 | 0.00 | 0.00 | 16 | 1006.4 |
| 20260510031259 | 81 | 37 | 3.0 | 6.0 | 0.00 | 0.00 | 0.00 | 16 | 1006.4 |
| 20260510030756 | 81 | 30 | 5.0 | 11.0 | 0.00 | 0.00 | 0.00 | 16 | 1006.3 |
| 20260510030521 | 81 | 38 | 4.0 | 11.0 | 0.00 | 0.00 | 0.00 | 16 | 1006.3 |
| 20260510025750 | 80 | 321 | 3.0 | 7.0 | 0.00 | 0.00 | 0.00 | 15 | 1006.2 |
| 20260510025252 | 81 | 247 | 2.0 | 6.0 | 0.00 | 0.00 | 0.00 | 15 | 1006.3 |
| 20260510024748 | 81 | 236 | 2.0 | 5.0 | 0.00 | 0.00 | 0.00 | 14 | 1006.2 |
| 20260510024234 | 81 | 236 | 1.0 | 4.0 | 0.00 | 0.00 | 0.00 | 14 | 1006.0 |
| 20260510023735 | 81 | 237 | 0.0 | 2.0 | 0.00 | 0.00 | 0.00 | 14 | 1005.7 |
| 20260510023725 | 82 | 238 | 0.0 | 2.0 | 0.00 | 0.00 | 0.00 | 14 | 1005.5 |
| 20260510022717 | 82 | 236 | 0.0 | 2.0 | 0.00 | 0.00 | 0.00 | 14 | 1005.4 |
| 20260510022220 | 82 | 233 | 1.0 | 4.0 | 0.00 | 0.00 | 0.00 | 13 | 1005.3 |
| 20260510022214 | 82 | 231 | 2.0 | 4.0 | 0.00 | 0.00 | 0.00 | 13 | 1005.3 |
| 20260510021214 | 82 | 231 | 3.0 | 5.0 | 0.00 | 0.00 | 0.00 | 13 | 1005.3 |
| 20260510020701 | 83 | 231 | 4.0 | 6.0 | 0.00 | 0.00 | 0.00 | 13 | 1005.3 |
| 20260510020158 | 83 | 233 | 4.0 | 6.0 | 0.00 | 0.00 | 0.00 | 13 | 1005.1 |
| 20260510015637 | 84 | 233 | 4.0 | 9.0 | 0.00 | 0.00 | 0.00 | 13 | 1005.2 |
| 20260510015135 | 84 | 234 | 5.0 | 9.0 | 0.00 | 0.00 | 0.00 | 12 | 1005.2 |
| 20260510014634 | 85 | 237 | 4.0 | 9.0 | 0.00 | 0.00 | 0.00 | 11 | 1005.1 |
| 20260510014402 | 86 | 227 | 1.0 | 9.0 | 0.00 | 0.00 | 0.00 | 12 | 1005.2 |
| 20260510013631 | 86 | 356 | 1.0 | 3.0 | 0.00 | 0.00 | 0.00 | 11 | 1004.9 |
| 20260510013401 | 87 | 0 | 1.0 | 3.0 | 0.00 | 0.00 | 0.00 | 11 | 1004.9 |
| 20260510012631 | 87 | 0 | 0.0 | 2.0 | 0.00 | 0.00 | 0.00 | 11 | 1004.7 |
| 20260510012130 | 88 | 0 | 0.0 | 1.0 | 0.00 | 0.00 | 0.00 | 10 | 1004.7 |
| 20260510011627 | 88 | 0 | 1.0 | 2.0 | 0.00 | 0.00 | 0.00 | 10 | 1004.5 |
| 20260510011112 | 88 | 0 | 2.0 | 4.0 | 0.00 | 0.00 | 0.00 | 10 | 1004.6 |
| 20260510010609 | 89 | 0 | 3.0 | 5.0 | 0.00 | 0.00 | 0.00 | 10 | 1004.6 |
| 20260510010108 | 89 | 0 | 3.0 | 5.0 | 0.00 | 0.00 | 0.00 | 10 | 1004.6 |
| 20260510005600 | 89 | 0 | 3.0 | 5.0 | 0.00 | 0.00 | 0.00 | 10 | 1004.6 |
| 20260510005058 | 90 | 0 | 3.0 | 7.0 | 0.00 | 0.00 | 0.00 | 9 | 1004.5 |
| 20260510004554 | 90 | 0 | 3.0 | 7.0 | 0.00 | 0.00 | 0.00 | 9 | 1004.6 |
| 20260510004053 | 91 | 0 | 3.0 | 6.0 | 0.00 | 0.00 | 0.00 | 9 | 1004.5 |
| 20260510003553 | 91 | 0 | 4.0 | 9.0 | 0.00 | 0.00 | 0.00 | 9 | 1004.6 |
| 20260510003050 | 91 | 0 | 4.0 | 9.0 | 0.00 | 0.00 | 0.00 | 9 | 1004.5 |
| 20260510002545 | 91 | 0 | 4.0 | 8.0 | 0.00 | 0.00 | 0.00 | 9 | 1004.5 |
| 20260510002046 | 91 | 0 | 5.0 | 9.0 | 0.00 | 0.00 | 0.00 | 9 | 1004.5 |
| 20260510001544 | 91 | 0 | 5.0 | 9.0 | 0.00 | 0.00 | 0.00 | 9 | 1004.5 |
| 20260510001041 | 91 | 0 | 5.0 | 10.0 | 0.00 | 0.00 | 0.00 | 9 | 1004.5 |
| 20260510000538 | 91 | 0 | 6.0 | 11.0 | 0.00 | 0.00 | 0.00 | 9 | 1004.5 |
| 20260510000038 | 91 | 0 | 6.0 | 12.0 | 0.00 | 0.00 | 0.00 | 9 | 1004.7 |
| 20260509235801 | 92 | 0 | 6.0 | 12.0 | 0.00 | 0.00 | 0.00 | 9 | 1004.7 |
| 20260509235031 | 92 | 0 | 5.0 | 9.0 | 0.00 | 0.00 | 0.00 | 8 | 1004.6 |
| 20260509234527 | 92 | 0 | 6.0 | 12.0 | 0.00 | 0.00 | 0.00 | 8 | 1004.7 |
| 20260509234024 | 92 | 0 | 6.0 | 12.0 | 0.00 | 0.00 | 0.00 | 8 | 1004.7 |
| 20260509233521 | 92 | 0 | 6.0 | 13.0 | 0.00 | 0.00 | 0.00 | 8 | 1004.7 |
| 20260509233022 | 92 | 0 | 5.0 | 13.0 | 0.00 | 0.00 | 0.00 | 8 | 1004.8 |
| 20260509232509 | 92 | 0 | 4.0 | 9.0 | 0.00 | 0.00 | 0.00 | 8 | 1004.8 |
| 20260509232241 | 92 | 0 | 4.0 | 10.0 | 0.00 | 0.00 | 0.00 | 8 | 1005.0 |
| 20260509231458 | 91 | 0 | 6.0 | 12.0 | 0.00 | 0.00 | 0.00 | 7 | 1005.1 |
| 20260509230959 | 91 | 0 | 9.0 | 14.0 | 0.00 | 0.00 | 0.00 | 8 | 1005.1 |
| 20260509230459 | 91 | 0 | 9.0 | 17.0 | 0.00 | 0.00 | 0.00 | 8 | 1005.1 |
| 20260509225957 | 91 | 0 | 8.0 | 17.0 | 0.00 | 0.00 | 0.00 | 8 | 1005.0 |
| 20260509225453 | 91 | 0 | 8.0 | 15.0 | 0.00 | 0.00 | 0.00 | 8 | 1004.9 |
| 20260509224953 | 91 | 0 | 10.0 | 16.0 | 0.00 | 0.00 | 0.00 | 8 | 1005.2 |
| 20260509224452 | 91 | 0 | 10.0 | 18.0 | 0.00 | 0.00 | 0.00 | 8 | 1005.2 |
| 20260509223949 | 92 | 0 | 9.0 | 18.0 | 0.00 | 0.00 | 0.00 | 8 | 1005.2 |
| 20260509223449 | 91 | 0 | 9.0 | 14.0 | 0.00 | 0.00 | 0.00 | 8 | 1005.3 |
| 20260509222948 | 91 | 0 | 9.0 | 14.0 | 0.00 | 0.00 | 0.00 | 9 | 1005.3 |
| 20260509222447 | 91 | 0 | 9.0 | 15.0 | 0.00 | 0.00 | 0.00 | 9 | 1005.5 |
| 20260509221944 | 91 | 0 | 8.0 | 15.0 | 0.00 | 0.00 | 0.00 | 9 | 1005.5 |
| 20260509221446 | 91 | 0 | 8.0 | 20.0 | 0.00 | 0.00 | 0.00 | 9 | 1005.5 |
| 20260509221215 | 91 | 0 | 9.0 | 20.0 | 0.00 | 0.00 | 0.00 | 9 | 1005.6 |
| 20260509220445 | 92 | 0 | 8.0 | 19.0 | 0.00 | 0.00 | 0.00 | 9 | 1005.6 |
| 20260509215943 | 92 | 0 | 8.0 | 17.0 | 0.00 | 0.00 | 0.00 | 9 | 1005.7 |
| 20260509215440 | 91 | 0 | 8.0 | 17.0 | 0.00 | 0.00 | 0.00 | 9 | 1005.7 |
| 20260509214939 | 91 | 0 | 7.0 | 16.0 | 0.00 | 0.00 | 0.00 | 8 | 1005.9 |
| 20260509214708 | 91 | 0 | 9.0 | 17.0 | 0.00 | 0.00 | 0.00 | 8 | 1006.0 |
| 20260509213937 | 91 | 0 | 10.0 | 17.0 | 0.00 | 0.00 | 0.00 | 8 | 1005.9 |
| 20260509213437 | 91 | 0 | 10.0 | 17.0 | 0.00 | 0.00 | 0.00 | 9 | 1006.0 |
| 20260509212935 | 91 | 0 | 10.0 | 19.0 | 0.00 | 0.00 | 0.00 | 8 | 1006.1 |
| 20260509212435 | 91 | 0 | 10.0 | 21.0 | 0.00 | 0.00 | 0.00 | 8 | 1006.1 |
| 20260509211934 | 91 | 0 | 10.0 | 21.0 | 0.00 | 0.00 | 0.00 | 9 | 1006.1 |
| 20260509211431 | 91 | 0 | 10.0 | 18.0 | 0.00 | 0.00 | 0.00 | 8 | 1006.3 |
| 20260509210931 | 91 | 0 | 12.0 | 23.0 | 0.00 | 0.00 | 0.00 | 7 | 1006.3 |
| 20260509210431 | 91 | 0 | 12.0 | 23.0 | 0.00 | 0.00 | 0.00 | 7 | 1006.6 |
| 20260509205930 | 91 | 0 | 10.0 | 20.0 | 0.00 | 0.00 | 0.00 | 7 | 1006.5 |
| 20260509205432 | 90 | 0 | 11.0 | 18.0 | 0.00 | 0.00 | 0.00 | 8 | 1006.6 |
| 20260509205200 | 91 | 0 | 10.0 | 16.0 | 0.00 | 0.00 | 0.00 | 9 | 1006.6 |
| 20260509204424 | 91 | 0 | 10.0 | 17.0 | 0.00 | 0.00 | 0.00 | 10 | 1006.7 |
| 20260509203923 | 91 | 0 | 10.0 | 17.0 | 0.00 | 0.00 | 0.00 | 10 | 1006.7 |
| 20260509203420 | 90 | 0 | 11.0 | 21.0 | 0.00 | 0.00 | 0.00 | 10 | 1006.6 |
| 20260509202920 | 90 | 0 | 11.0 | 21.0 | 0.00 | 0.00 | 0.00 | 10 | 1006.8 |
| 20260509202420 | 90 | 0 | 9.0 | 17.0 | 0.00 | 0.00 | 0.00 | 12 | 1006.7 |
| 20260509201921 | 90 | 0 | 11.0 | 23.0 | 0.00 | 0.00 | 0.00 | 11 | 1006.6 |
| 20260509201421 | 90 | 0 | 11.0 | 23.0 | 0.00 | 0.00 | 0.00 | 11 | 1006.6 |
| 20260509200915 | 90 | 0 | 10.0 | 19.0 | 0.00 | 0.00 | 0.00 | 10 | 1006.5 |
| 20260509200413 | 90 | 0 | 10.0 | 19.0 | 0.00 | 0.00 | 0.00 | 10 | 1006.7 |
| 20260509200143 | 90 | 0 | 9.0 | 16.0 | 0.00 | 0.00 | 0.00 | 13 | 1006.8 |
| 20260509195411 | 90 | 0 | 8.0 | 17.0 | 0.00 | 0.00 | 0.00 | 13 | 1006.8 |
| 20260509194912 | 90 | 0 | 8.0 | 17.0 | 0.00 | 0.00 | 0.00 | 13 | 1007.0 |
| 20260509194409 | 90 | 0 | 10.0 | 20.0 | 0.00 | 0.00 | 0.00 | 13 | 1007.0 |
| 20260509193909 | 90 | 0 | 8.0 | 20.0 | 0.00 | 0.00 | 0.00 | 13 | 1007.0 |
| 20260509193406 | 90 | 0 | 8.0 | 18.0 | 0.00 | 0.00 | 0.00 | 13 | 1007.0 |
| 20260509192909 | 89 | 0 | 6.0 | 13.0 | 0.00 | 0.00 | 0.00 | 16 | 1007.1 |
| 20260509192905 | 89 | 0 | 8.0 | 18.0 | 0.00 | 0.00 | 0.00 | 14 | 1007.2 |
| 20260509191900 | 88 | 0 | 9.0 | 17.0 | 0.00 | 0.00 | 0.00 | 15 | 1007.3 |
| 20260509191358 | 89 | 0 | 11.0 | 20.0 | 0.00 | 0.00 | 0.00 | 15 | 1007.3 |
| 20260509191126 | 89 | 0 | 9.0 | 20.0 | 0.00 | 0.00 | 0.00 | 16 | 1007.3 |
| 20260509190623 | 88 | 0 | 8.0 | 15.0 | 0.00 | 0.00 | 0.00 | 17 | 1007.4 |
| 20260509185849 | 88 | 0 | 9.0 | 15.0 | 0.00 | 0.00 | 0.00 | 17 | 1007.5 |
| 20260509185349 | 87 | 0 | 10.0 | 18.0 | 0.00 | 0.00 | 0.00 | 17 | 1007.6 |
| 20260509184844 | 87 | 0 | 9.0 | 18.0 | 0.00 | 0.00 | 0.00 | 17 | 1007.7 |
| 20260509184344 | 87 | 0 | 9.0 | 16.0 | 0.00 | 0.00 | 0.00 | 16 | 1007.8 |
| 20260509183842 | 87 | 0 | 9.0 | 16.0 | 0.00 | 0.00 | 0.00 | 16 | 1007.9 |
| 20260509183338 | 87 | 0 | 9.0 | 18.0 | 0.00 | 0.00 | 0.00 | 17 | 1008.0 |
| 20260509182834 | 87 | 0 | 10.0 | 20.0 | 0.00 | 0.00 | 0.00 | 17 | 1008.1 |
| 20260509182604 | 87 | 0 | 10.0 | 21.0 | 0.00 | 0.00 | 0.00 | 17 | 1008.1 |
| 20260509181834 | 87 | 0 | 10.0 | 21.0 | 0.00 | 0.00 | 0.00 | 17 | 1008.3 |
| 20260509181332 | 87 | 0 | 11.0 | 18.0 | 0.00 | 0.00 | 0.00 | 18 | 1008.3 |
| 20260509180833 | 87 | 0 | 10.0 | 18.0 | 0.00 | 0.00 | 0.00 | 18 | 1008.4 |
| 20260509180333 | 86 | 0 | 8.0 | 14.0 | 0.00 | 0.00 | 0.00 | 19 | 1008.5 |
| 20260509175832 | 86 | 0 | 9.0 | 16.0 | 0.00 | 0.00 | 0.00 | 20 | 1008.7 |
| 20260509175332 | 85 | 0 | 9.0 | 16.0 | 0.00 | 0.00 | 0.00 | 21 | 1009.0 |
| 20260509175103 | 85 | 0 | 10.0 | 20.0 | 0.00 | 0.00 | 0.00 | 20 | 1009.1 |
| 20260509174333 | 85 | 0 | 11.0 | 20.0 | 0.00 | 0.00 | 0.00 | 21 | 1009.3 |
| 20260509173832 | 85 | 0 | 10.0 | 20.0 | 0.00 | 0.00 | 0.00 | 21 | 1009.3 |
| 20260509173335 | 84 | 0 | 10.0 | 20.0 | 0.00 | 0.00 | 0.00 | 23 | 1009.5 |
| 20260509173331 | 85 | 0 | 9.0 | 18.0 | 0.00 | 0.00 | 0.00 | 22 | 1009.3 |
| 20260509172559 | 84 | 0 | 9.0 | 20.0 | 0.00 | 0.00 | 0.00 | 25 | 1009.6 |
| 20260509171828 | 83 | 0 | 9.0 | 18.0 | 0.00 | 0.00 | 0.00 | 25 | 1009.7 |
| 20260509171557 | 83 | 0 | 10.0 | 18.0 | 0.00 | 0.00 | 0.00 | 25 | 1009.6 |
| 20260509170828 | 83 | 0 | 9.0 | 17.0 | 0.00 | 0.00 | 0.00 | 26 | 1009.7 |
| 20260509170557 | 83 | 0 | 9.0 | 16.0 | 0.00 | 0.00 | 0.00 | 27 | 1009.7 |
| 20260509165827 | 82 | 0 | 8.0 | 16.0 | 0.00 | 0.00 | 0.00 | 28 | 1009.9 |
| 20260509165326 | 82 | 0 | 8.0 | 16.0 | 0.00 | 0.00 | 0.00 | 28 | 1010.0 |
| 20260509164827 | 82 | 0 | 10.0 | 17.0 | 0.00 | 0.00 | 0.00 | 28 | 1010.2 |
| 20260509164325 | 81 | 0 | 10.0 | 17.0 | 0.00 | 0.00 | 0.00 | 28 | 1010.1 |
| 20260509163824 | 81 | 0 | 9.0 | 16.0 | 0.00 | 0.00 | 0.00 | 30 | 1010.1 |
| 20260509163323 | 81 | 0 | 9.0 | 19.0 | 0.00 | 0.00 | 0.00 | 31 | 1010.1 |
| 20260509162819 | 80 | 0 | 8.0 | 19.0 | 0.00 | 0.00 | 0.00 | 31 | 1010.4 |
| 20260509162316 | 80 | 0 | 8.0 | 20.0 | 0.00 | 0.00 | 0.00 | 31 | 1010.4 |
| 20260509161819 | 80 | 0 | 8.0 | 17.0 | 0.00 | 0.00 | 0.00 | 33 | 1010.5 |
| 20260509161815 | 80 | 0 | 9.0 | 20.0 | 0.00 | 0.00 | 0.00 | 33 | 1010.5 |
| 20260509160811 | 79 | 0 | 8.0 | 17.0 | 0.00 | 0.00 | 0.00 | 34 | 1010.5 |
| 20260509160310 | 79 | 0 | 9.0 | 17.0 | 0.00 | 0.00 | 0.00 | 35 | 1010.5 |
| 20260509155805 | 78 | 0 | 10.0 | 17.0 | 0.00 | 0.00 | 0.00 | 36 | 1010.5 |
| 20260509155306 | 78 | 0 | 10.0 | 18.0 | 0.00 | 0.00 | 0.00 | 36 | 1010.5 |
| 20260509154803 | 78 | 0 | 10.0 | 18.0 | 0.00 | 0.00 | 0.00 | 36 | 1010.4 |
| 20260509154302 | 77 | 0 | 11.0 | 19.0 | 0.00 | 0.00 | 0.00 | 35 | 1010.6 |
| 20260509153802 | 77 | 0 | 9.0 | 19.0 | 0.00 | 0.00 | 0.00 | 35 | 1010.7 |
| 20260509153301 | 77 | 0 | 8.0 | 18.0 | 0.00 | 0.00 | 0.00 | 37 | 1010.8 |
| 20260509152800 | 76 | 0 | 9.0 | 16.0 | 0.00 | 0.00 | 0.00 | 39 | 1010.8 |
| 20260509152256 | 75 | 0 | 11.0 | 18.0 | 0.00 | 0.00 | 0.00 | 41 | 1010.8 |
| 20260509152026 | 74 | 0 | 11.0 | 19.0 | 0.00 | 0.00 | 0.00 | 43 | 1010.9 |
| 20260509151254 | 74 | 0 | 9.0 | 19.0 | 0.00 | 0.00 | 0.00 | 45 | 1011.1 |
| 20260509151023 | 74 | 0 | 8.0 | 15.0 | 0.00 | 0.00 | 0.00 | 48 | 1011.1 |
| 20260509150517 | 73 | 0 | 7.0 | 15.0 | 0.00 | 0.00 | 0.00 | 50 | 1011.1 |
| 20260509145746 | 72 | 0 | 7.0 | 11.0 | 0.00 | 0.00 | 0.00 | 51 | 1011.2 |
| 20260509145514 | 71 | 0 | 6.0 | 10.0 | 0.00 | 0.00 | 0.00 | 51 | 1011.4 |
| 20260509144743 | 70 | 0 | 5.0 | 9.0 | 0.00 | 0.00 | 0.00 | 51 | 1011.5 |
| 20260509144234 | 70 | 0 | 5.0 | 10.0 | 0.00 | 0.00 | 0.00 | 50 | 1011.5 |
| 20260509143735 | 69 | 0 | 6.0 | 12.0 | 0.00 | 0.00 | 0.00 | 51 | 1011.5 |
| 20260509143233 | 69 | 0 | 7.0 | 12.0 | 0.00 | 0.00 | 0.00 | 51 | 1011.7 |
| 20260509142727 | 68 | 0 | 5.0 | 11.0 | 0.00 | 0.00 | 0.00 | 52 | 1011.7 |
| 20260509142458 | 68 | 0 | 4.0 | 8.0 | 0.00 | 0.00 | 0.00 | 52 | 1011.8 |
| 20260509141955 | 67 | 0 | 3.0 | 7.0 | 0.00 | 0.00 | 0.00 | 51 | 1011.8 |
| 20260509141225 | 66 | 0 | 2.0 | 4.0 | 0.00 | 0.00 | 0.00 | 49 | 1011.8 |
| 20260509140725 | 65 | 0 | 1.0 | 4.0 | 0.00 | 0.00 | 0.00 | 49 | 1012.0 |
| 20260509140222 | 63 | 0 | 0.0 | 3.0 | 0.00 | 0.00 | 0.00 | 49 | 1012.1 |
| 20260509135721 | 62 | 0 | 0.0 | 2.0 | 0.00 | 0.00 | 0.00 | 47 | 1012.1 |
| 20260509135451 | 62 | 0 | 1.0 | 2.0 | 0.00 | 0.00 | 0.00 | 47 | 1012.1 |
| 20260509134721 | 61 | 139 | 1.0 | 4.0 | 0.00 | 0.00 | 0.00 | 47 | 1012.2 |
| 20260509134221 | 61 | 139 | 2.0 | 4.0 | 0.00 | 0.00 | 0.00 | 47 | 1012.2 |
| 20260509133717 | 60 | 139 | 2.0 | 3.0 | 0.00 | 0.00 | 0.00 | 49 | 1012.1 |
| 20260509133215 | 60 | 139 | 1.0 | 5.0 | 0.00 | 0.00 | 0.00 | 49 | 1012.1 |
| 20260509132711 | 59 | 139 | 0.0 | 5.0 | 0.00 | 0.00 | 0.00 | 50 | 1012.0 |
| 20260509132207 | 58 | 0 | 0.0 | 0.0 | 0.00 | 0.00 | 0.00 | 50 | 1011.9 |
| 20260509131632 | 57 | 106 | 0.0 | 0.0 | 0.00 | 0.00 | 0.00 | 51 | 1012.0 |
| 20260509131132 | 57 | 106 | 0.0 | 0.0 | 0.00 | 0.00 | 0.00 | 51 | 1012.0 |
| 20260509130630 | 56 | 0 | 0.0 | 0.0 | 0.00 | 0.00 | 0.00 | 52 | 1011.9 |
| 20260509130129 | 56 | 0 | 0.0 | 2.0 | 0.00 | 0.00 | 0.00 | 53 | 1011.9 |
| 20260509125629 | 55 | 0 | 1.0 | 2.0 | 0.00 | 0.00 | 0.00 | 54 | 1011.8 |
| 20260509125327 | 54 | 0 | 0.0 | 2.0 | 0.00 | 0.00 | 0.00 | 55 | 1011.7 |
| 20260509124557 | 54 | 0 | 0.0 | 1.0 | 0.00 | 0.00 | 0.00 | 56 | 1011.8 |
| 20260509124319 | 53 | 0 | 0.0 | 1.0 | 0.00 | 0.00 | 0.00 | 57 | 1011.7 |
| 20260509123547 | 53 | 0 | 0.0 | 0.0 | 0.00 | 0.00 | 0.00 | 57 | 1011.8 |
| 20260509123034 | 52 | 0 | 0.0 | 0.0 | 0.00 | 0.00 | 0.00 | 57 | 1011.7 |
| 20260509122531 | 52 | 0 | 0.0 | 0.0 | 0.00 | 0.00 | 0.00 | 56 | 1011.8 |
| 20260509122023 | 52 | 0 | 0.0 | 1.0 | 0.00 | 0.00 | 0.00 | 56 | 1011.7 |
| 20260509121520 | 52 | 0 | 0.0 | 1.0 | 0.00 | 0.00 | 0.00 | 56 | 1011.7 |
| 20260509120949 | 52 | 0 | 0.0 | 1.0 | 0.00 | 0.00 | 0.00 | 55 | 1011.8 |
| 20260509120712 | 52 | 0 | 1.0 | 2.0 | 0.00 | 0.00 | 0.00 | 55 | 1011.7 |
| 20260509115934 | 52 | 0 | 1.0 | 3.0 | 0.00 | 0.00 | 0.00 | 55 | 1011.6 |
| 20260509115435 | 52 | 0 | 2.0 | 4.0 | 0.00 | 0.00 | 0.00 | 55 | 1011.6 |
| 20260509114931 | 53 | 0 | 2.0 | 4.0 | 0.00 | 0.00 | 0.00 | 54 | 1011.6 |
| 20260509114433 | 53 | 0 | 2.0 | 4.0 | 0.00 | 0.00 | 0.00 | 54 | 1011.7 |
| 20260509113931 | 53 | 0 | 2.0 | 4.0 | 0.00 | 0.00 | 0.00 | 53 | 1011.7 |
| 20260509113429 | 53 | 0 | 2.0 | 3.0 | 0.00 | 0.00 | 0.00 | 53 | 1011.7 |
| 20260509112929 | 53 | 0 | 1.0 | 3.0 | 0.00 | 0.00 | 0.00 | 53 | 1011.7 |
| 20260509112415 | 53 | 0 | 0.0 | 2.0 | 0.00 | 0.00 | 0.00 | 52 | 1011.8 |
| 20260509112146 | 54 | 0 | 1.0 | 3.0 | 0.00 | 0.00 | 0.00 | 52 | 1011.8 |
| 20260509111405 | 54 | 0 | 2.0 | 4.0 | 0.00 | 0.00 | 0.00 | 52 | 1011.8 |
| 20260509110902 | 54 | 0 | 2.0 | 4.0 | 0.00 | 0.00 | 0.00 | 51 | 1011.9 |
| 20260509110400 | 55 | 0 | 2.0 | 3.0 | 0.00 | 0.00 | 0.00 | 50 | 1011.9 |
| 20260509105904 | 55 | 0 | 1.0 | 3.0 | 0.00 | 0.00 | 0.00 | 50 | 1011.8 |
| 20260509105900 | 55 | 0 | 1.0 | 3.0 | 0.00 | 0.00 | 0.00 | 50 | 1011.8 |